CamptonHillsWeather.com

Find the Weather for any City, State  
or Zipcode, or Country:

Campton Hills, IL Weather
Local Radar

Local Radar

Graphs, Details
Graphs and Gauges
Detailed Weather
Detailed Reports
Ajax Version (old)
Central Kane Co Summary
Davis Current Weather Graphs
Davis 24 Hour Weather History

CW3778 Data

Weather Underground
Maps
Temperature
Heat Index
Windchill
Humidity
Radar
Dew Point
Wind
Visibility
Visible Satellite
Satellite
Fronts
Snow Depth
Jet Stream
Flight Rules
Forecast Maps
Temperature Forecast
Maximum Temperature Forecast
Minimum Temperature Forecast
Dewpoint Forecast
Prevalent Weather
12Hr Probability of Precip.
Sky Cover
Health Maps
UV Forecast
Air Quality
Peak Air Quality Index
Weather Station
Davis Instruments Vantage Pro
Current Conditions [Select Refresh to Update]

Updated: 3:36pm on 7/1/16

(location)
Currently:
74.8F

Clear
Mostly Cloudy

High: 75.0 F< 
(1:44pm
Low: 60.0 F 
(3:17am)
Wind: NNW 0 mph
Calm
Gust: 7 mph
Today's High Wind: 12 mph (3:57am)
Humidity: 49%
Pressure: 30.09 in  (Steady
Pressure Rate: 0.003 in/hr
Dew Point: 54.4F
Wind Chill: 74.8 F
Heat Index (feels like): 75.5 F
Comfort Level: Comfortable
Temperature Rate:  1.03F/hr
 
5 Day Forecast
 
Sat Sun Mon Tue Wed
Clear Clear Clear Clear Clear
Mostly Cloudy Mostly Cloudy Mostly Cloudy Mostly Cloudy Chance T-storms
77 77 80 85 87
57 60 63 66 69

Records and Normals
 
Temperature Forecast Normal Record
High 77 0 0
(0)
Low 57 0 0
(0)
 
Links
 
 
Weather Advisories
Full Advisory Text...
Weather Map

Web Cam

Almanac
 
Sunrise:  
5:23am
Moonrise: 
3:06am

Moon Phase:
13%

Sunset: 
8:34pm
Moonset:  
5:35pm
 Star Chart...
Rainfall Totals
Hourly Rain 0.00 in
Daily Rain: 0.00 in
Monthly Rain: 0.00 in
Yearly Rain: 17.74 in
Normal Rain, month to date: 0.00 in
Normal Rain, year to date: 0.00 in
Link to Village of Campton Hills Map

Link to Counties of Illinois Map

Local Weather Exchange Network
Station ID City 
(Click for Map Location)
Neighborhood 
(Click for History)
Last Update (Date & Time) Temperature
 ()
Dew
Point ()
Humidity 
(%)
Wind 
(mph)
from the Wind Gust 
(mph) 
Pressure(in) Hourly
Rain(in)
KILSAINT20 Saint Charles Knoll Creek Drive 07/01 15:03:32 73.9 56.0 52 0 North 0 30.05 0.00
KILSAINT17 Saint Charles Glen Oak Lane 07/01 15:25:37 82.0 58.0 43 0 North 0 30.15 0.00
KILSAINT10 Saint Charles Saint Charles Burr Road 07/01 15:22:00 83.1 57.0 41 3 SSE 0 29.80 0.00
KILSTCHA10 St. Charles Hunt Club 07/01 15:26:04 74.1 28.0 18 0 NNE 0 29.64 0.00
KILSAINT8 Saint Charles St. Charles Near West Side 07/01 15:19:49 76.1 56.0 50 1 ENE 0 29.85 0.00
KILWAYNE4 Wayne Hampton Course 07/01 15:21:01 73.2 58.0 58 0 North 0 30.20 0.00
KILSAINT7 Saint Charles Silver Glen 07/01 15:26:01 74.5 19.0 12 8 West 10 29.75 0.00
KILCAMPT3 Campton Hills Campton Hills 07/01 15:25:42 77.0 51.0 40 0 North 5 30.09 0.00
KILSAINT6 Saint Charles 3 Lakes 07/01 15:21:47 76.5 59.0 55 4 SSW 0 29.80 0.00
KILSOUTH10 South Elgin East Thornwood Drive 07/01 15:21:26 79.3 55.0 42 0 North 0 29.12 0.00
KILSAINT9 Saint Charles Fox Chase 07/01 15:25:37 73.4 55.0 52 3 West 5 30.11 0.00
KILGENEV6 Geneva Dover Ridge 07/01 15:25:58 74.0 54.0 49 4 NW 4 30.06 0.00
KILELBUR18 Elburn Elodie Drive 07/01 15:25:48 74.8 57.0 53 0 North 0 28.61 0.00
KILGENEV10 Geneva Southampton Drive 07/01 15:21:08 76.5 57.0 50 0 North 0 30.17 0.00
KILSTCHA8 St. Charles Ronzheimer Ave. & S. Tyler Rd. 07/01 15:26:01 74.3 53.0 48 1 NNW 5 30.05 0.00
KILGENEV3 Geneva Mill Creek (Blackberry Way) 07/01 15:26:07 77.2 54.0 45 5 NW 13 30.06 0.00
KILSTCHA1 St Charles CamptonHillsWeather.com Central Kane County 07/01 15:25:58 74.8 55.0 50 2 NE 5 30.09 0.00
KILGENEV7 Geneva Eldorado Drive 07/01 15:20:56 81.7 59.0 46 0 North 0 30.04 0.00
KILGENEV17 Geneva Geneva 07/01 15:21:22 76.3 54.0 46 0 North 0 29.26 0.00
KILSOUTH5 South Elgin Concord Park 07/01 15:13:37 73.8 56.0 54 8 North 0 29.85 0.00
KILWAYNE7 Wayne Honey Hill 07/01 15:20:13 73.8 60.0 61 0 North 0 30.24 0.00
KILGENEV2 Geneva Mill Creek 07/01 15:20:29 75.3 56.0 52 5 NW 8 30.02 0.00
KILBATAV13 Batavia Blackhawk Dr, Batavia 07/01 15:25:58 73.8 51.0 45 1 North 2 30.12 0.00
KILELBUR11 Elburn Cheval de Selle 07/01 15:11:25 78.1 54.0 44 10 WNW 0 30.08 0.00
KILBATAV7 Batavia Charleston Street 07/01 15:21:08 79.7 59.0 48 0 North 0 30.17 0.00
KILBATAV16 Batavia Park Street 07/01 15:25:56 80.4 55.0 41 2 South 0 30.04 0.00
KILELBUR13 Elburn Hicks Drive 07/01 15:25:23 84.7 59.0 41 0 North 0 29.96 0.00
KILBATAV1 Batavia Tri-Cities on the Fox River 07/01 15:25:58 77.7 51.0 39 0 NW 1 30.08 0.00
KILELGIN16 Elgin Providence Subdivision 07/01 15:20:52 81.7 55.0 40 5 NE 0 29.82 0.00
KILELBUR10 Elburn Prairie Valley North 07/01 15:26:00 75.4 55.0 49 3 NNE 7 29.90 0.00
KILELGIN20 Elgin Williamsburg Drive 07/01 15:21:20 72.3 56.0 57 0 North 0 30.08 0.00
KILELBUR15 Elburn East North Street 07/01 15:21:34 96.3 59.0 28 0 North 0 29.93 0.00
KILBATAV10 Batavia Deerpath Road 07/01 15:20:53 74.7 55.0 50 0 North 0 30.10 0.00
KILELBUR9 Elburn Griffith Avenue 07/01 15:25:46 79.7 58.0 47 0 North 0 29.31 0.00
KILELBUR5 Elburn Prairie Highlands 07/01 15:25:16 73.0 55.0 54 2 NE 9 30.08 0.00
KILELBUR17 Elburn Elburn 07/01 15:25:54 74.8 54.0 49 3 WNW 5 30.36 0.00
KILWESTC12 West Chicago Woodland Avenue 07/01 15:21:13 73.6 60.0 61 0 North 0 30.17 0.00
KDPA Chicago DuPage Official Station 07/01 14:52:00 72.0 50.0 46 12 North --- 30.10 ---
KARR Aurora Official Station 07/01 14:52:00 75.0 53.0 46 9 North --- 30.10 ---
KDKB DeKalb Official Station 07/01 15:15:00 72.0 52.0 49 7 North --- 30.13 ---
Full Advisory Text
No Warnings

Ambient Weather and Weather Underground
 Never base important decisions on this or any weather information obtained from the Internet
Updated Automatically by Ambient Weather's Virtual Weather Station  V13.01